Regional Weather Roundup
Issued by NWS Albany, NY

Home | Current Version | Previous Version | Text Only | Print | Product List | Glossary On
Versions: 1 2 3 4 5 6 7 8 9 10 11 12 13 14 15 16 17 18 19 20 21 22 23 24 25 26 27 28 29 30 31 32 33 34 35 36 37 38 39 40 41 42 43 44 45 46 47 48 49 50
000
ASUS41 KALY 250310
RWRALY

NEW YORK STATE HOURLY WEATHER ROUNDUP
NATIONAL WEATHER SERVICE ALBANY NY
1100 PM EDT SUN SEP 24 2017

NOTE: "FAIR" INDICATES FEW OR NO CLOUDS BELOW 12,000 FEET WITH NO
SIGNIFICANT WEATHER AND/OR NO OBSTRUCTIONS TO VISIBILITY.

NYZ032-033-038>043-046>054-057>066-NYZ062>081-082-084-250400-
EAST


CITY           SKY/WX    TMP DP  RH WIND       PRES   REMARKS
ALBANY         CLEAR     71  67  87 CALM      30.06S
GLENS FALLS    PTCLDY    68  66  93 CALM      30.07R
POUGHKEEPSIE   CLEAR     68  65  90 CALM      30.05S
NEWBURGH       CLEAR     72  68  88 CALM      30.08S
MONTGOMERY     CLEAR     68  67  96 CALM      30.06F
WHITE PLAINS   CLEAR     71  66  84 W3        30.06F
ISLIP          CLEAR     70  63  78 S3        30.06S
NEW YORK CITY  PTCLDY    77  63  61 S3        30.04F
CENTRAL PARK   CLEAR     77  62  59 CALM      30.08S
$$

NYZ005>009-017-018-044>046-055-056-250400-
CENTRAL


CITY           SKY/WX    TMP DP  RH WIND       PRES   REMARKS
FULTON         CLEAR     65  64  97 CALM      30.10S FOG
SYRACUSE       CLEAR     69  67  93 CALM      30.09S
ROME           CLEAR     67  66  97 NE3       30.11S
ELMIRA         CLEAR     66  65  96 CALM      30.12F
BINGHAMTON     CLEAR     71  65  81 N9        30.15S
MONTICELLO     CLEAR     69  65  86 NW3       30.14S
$$

NYZ026>034-041>043-087-250400-
NORTH


CITY           SKY/WX    TMP DP  RH WIND       PRES   REMARKS
WATERTOWN      CLEAR     67  66  97 CALM      30.09S FOG
FORT DRUM      NOT AVBL
OGDENSBURG     FAIR      68  66  94 CALM      30.08R FOG
MASSENA        CLEAR     72  71  97 SW3       30.08R
SARANAC LAKE   FOG       57  57 100 CALM      30.15S VSB 3/4
PLATTSBURGH    CLEAR     69  66  90 S3        30.06R
$$

NYZ001>004-010>016-019>021-085-250400-
WEST


CITY           SKY/WX    TMP DP  RH WIND       PRES   REMARKS
NIAGARA FALLS  CLEAR     74  66  76 CALM      30.10S
BUFFALO        CLEAR     74  68  81 SE3       30.11S
DUNKIRK        CLEAR     65  64  97 CALM      30.11S
JAMESTOWN      CLEAR     74  65  73 NE5       30.18S
WELLSVILLE     CLEAR     69  64  84 CALM      30.21S
ROCHESTER      CLEAR     71  69  93 W3        30.11S
PENN YAN       CLEAR     68  65  90 CALM      30.14S
$$

             KEY
       WCI = WIND CHILL INDEX
       VSB = VISIBILITY
       HX  = HEAT INDEX
$$



USA.gov is the U.S. government's official web portal to all federal, state and local government web resources and services.